Westminster, MD

11:49 AM EST on November 20, 2019 (GMT -0500)
Carroll County Regional-Poage

Weather History for KDMW - September, 2019

Change the Weather History Date:

Friday, September 27, 2019

  Actual Average (WUND) Record (WUND)
Temperature  
Mean Temperature 70 °F -  
Max Temperature 84 °F - - (-1)
Min Temperature 55 °F - - (-1)
Cooling Degree Days 4    
Growing Degree Days 20 (Base 50)    
Moisture  
Dew Point 54 °F    
Average Humidity 65    
Maximum Humidity 100    
Minimum Humidity 35    
Precipitation  
Precipitation 0.00 in - - ()
Sea Level Pressure  
Sea Level Pressure 30.09 in    
Wind  
Wind Speed 2 mph (SSE)    
Max Wind Speed 10 mph    
Max Gust Speed -    
Visibility 10 miles    
Events      
Averages and records for this station are not official NWS values.
T = Trace of Precipitation, MM = Missing Value Source: NWS Daily Summary

Daily Weather History Graph

Daily Weather History Graph

Search for Another Location

Airport or City:

Astronomy

Sep. 27, 2019 Rise Set
Actual Time 7:00 AM EDT 6:57 PM EDT
Civil Twilight 6:33 AM EDT 7:24 PM EDT
Nautical Twilight 6:01 AM EDT 7:55 PM EDT
Astronomical Twilight 5:30 AM EDT 8:26 PM EDT
Moon 5:19 AM EDT (9/27) 6:46 PM EDT (9/27)
Length of Visible Light 12h 50m
Length of Day
11h 57m
Waning Crescent, 2% of the Moon is Illuminated
Sep 27
Waning Crescent
Sep 28
New
Oct 5
First Quarter
Oct 13
Full
Oct 21
Last Quarter

Hourly Weather History & Observations

Time (EDT) Temp. Heat Index Dew Point Humidity Pressure Visibility Wind Dir Wind Speed Gust Speed Precip Events Conditions
12:00 AM 62.6 °F - 57.2 °F 82% 29.99 in 10.0 mi Calm Calm - N/A   Clear
12:20 AM 62.6 °F - 55.4 °F 77% 30.00 in 10.0 mi Calm Calm - N/A   Clear
12:40 AM 62.6 °F - 55.4 °F 77% 30.00 in 10.0 mi Calm Calm - N/A   Clear
1:00 AM 62.6 °F - 55.4 °F 77% 30.00 in 10.0 mi Calm Calm - N/A   Clear
1:20 AM 60.8 °F - 55.4 °F 82% 30.00 in 10.0 mi Calm Calm - N/A   Clear
1:40 AM 60.8 °F - 55.4 °F 82% 30.01 in 10.0 mi Calm Calm - N/A   Clear
2:00 AM 59.0 °F - 55.4 °F 88% 30.01 in 10.0 mi Calm Calm - N/A   Clear
2:20 AM 60.8 °F - 55.4 °F 82% 30.02 in 10.0 mi Calm Calm - N/A   Clear
2:40 AM 59.0 °F - 55.4 °F 88% 30.02 in 10.0 mi Calm Calm - N/A   Clear
3:00 AM 57.2 °F - 55.4 °F 94% 30.03 in 10.0 mi Calm Calm - N/A   Clear
3:20 AM 57.2 °F - 53.6 °F 88% 30.03 in 10.0 mi NE 3.5 mph - N/A   Clear
3:40 AM 57.2 °F - 55.4 °F 94% 30.04 in 10.0 mi Calm Calm - N/A   Clear
4:00 AM 57.2 °F - 55.4 °F 94% 30.04 in 10.0 mi Calm Calm - N/A   Clear
4:20 AM 57.2 °F - 55.4 °F 94% 30.05 in 10.0 mi Calm Calm - N/A   Clear
4:40 AM 57.2 °F - 55.4 °F 94% 30.06 in 7.0 mi Calm Calm - N/A   Clear
5:00 AM 57.2 °F - 55.4 °F 94% 30.06 in 7.0 mi Calm Calm - N/A   Clear
5:20 AM 55.4 °F - 53.6 °F 94% 30.06 in 10.0 mi Calm Calm - N/A   Clear
5:40 AM 55.4 °F - 55.4 °F 100% 30.07 in 7.0 mi Calm Calm - N/A   Clear
6:00 AM 55.4 °F - 55.4 °F 100% 30.08 in 7.0 mi Calm Calm - N/A   Clear
6:20 AM 55.4 °F - 53.6 °F 94% 30.08 in 7.0 mi Calm Calm - N/A   Clear
6:40 AM 55.4 °F - 53.6 °F 94% 30.09 in 7.0 mi Calm Calm - N/A   Clear
7:00 AM 55.4 °F - 53.6 °F 94% 30.10 in 7.0 mi Calm Calm - N/A   Clear
7:20 AM 55.4 °F - 53.6 °F 94% 30.10 in 4.0 mi Calm Calm - N/A   Clear
7:40 AM 55.4 °F - 53.6 °F 94% 30.11 in 5.0 mi Calm Calm - N/A   Clear
8:00 AM 57.2 °F - 55.4 °F 94% 30.12 in 10.0 mi Calm Calm - N/A   Clear
8:20 AM 59.0 °F - 55.4 °F 88% 30.12 in 10.0 mi Calm Calm - N/A   Clear
8:40 AM 62.6 °F - 55.4 °F 77% 30.13 in 10.0 mi Calm Calm - N/A   Clear
9:00 AM 64.4 °F - 55.4 °F 73% 30.14 in 10.0 mi Calm Calm - N/A   Clear
9:20 AM 66.2 °F - 55.4 °F 68% 30.14 in 10.0 mi Calm Calm - N/A   Clear
9:40 AM 68.0 °F - 53.6 °F 60% 30.15 in 10.0 mi Calm Calm - N/A   Clear
10:20 AM 69.8 °F - 51.8 °F 53% 30.16 in 10.0 mi East 4.6 mph - N/A   Clear
10:40 AM 69.8 °F - 50.0 °F 49% 30.16 in 10.0 mi ESE 4.6 mph - N/A   Clear
11:00 AM 71.6 °F - 51.8 °F 50% 30.16 in 10.0 mi SE 4.6 mph - N/A   Clear
11:20 AM 71.6 °F - 51.8 °F 50% 30.16 in 10.0 mi Calm Calm - N/A   Clear
12:00 PM 75.2 °F - 50.0 °F 41% 30.16 in 10.0 mi SSE 8.1 mph - N/A   Clear
12:20 PM 75.2 °F - 48.2 °F 38% 30.16 in 10.0 mi SE 6.9 mph - N/A   Clear
12:40 PM 75.2 °F - 50.0 °F 41% 30.15 in 10.0 mi SSE 4.6 mph - N/A   Clear
1:00 PM 77.0 °F - 50.0 °F 39% 30.14 in 10.0 mi South 8.1 mph - N/A   Clear
1:20 PM 78.8 °F - 51.8 °F 39% 30.13 in 10.0 mi South 6.9 mph - N/A   Clear
1:40 PM 78.8 °F - 51.8 °F 39% 30.12 in 10.0 mi SSW 10.4 mph - N/A   Clear
2:00 PM 80.6 °F - 51.8 °F 37% 30.11 in 10.0 mi SW 5.8 mph - N/A   Clear
2:20 PM 82.4 °F 81.4 °F 53.6 °F 37% 30.10 in 10.0 mi South 10.4 mph - N/A   Clear
2:40 PM 82.4 °F 81.4 °F 53.6 °F 37% 30.10 in 10.0 mi SSE 6.9 mph - N/A   Clear
3:00 PM 82.4 °F 81.4 °F 53.6 °F 37% 30.09 in 10.0 mi South 3.5 mph - N/A   Clear
3:20 PM 80.6 °F 80.5 °F 55.4 °F 42% 30.09 in 10.0 mi South 8.1 mph - N/A   Clear
3:40 PM 80.6 °F 80.3 °F 53.6 °F 39% 30.09 in 10.0 mi South 9.2 mph - N/A   Clear
4:00 PM 82.4 °F 81.4 °F 53.6 °F 37% 30.08 in 10.0 mi SSE 4.6 mph - N/A   Clear
4:20 PM 82.4 °F 81.4 °F 53.6 °F 37% - 10.0 mi South 9.2 mph - N/A   Clear
4:40 PM 82.4 °F 81.4 °F 53.6 °F 37% - 10.0 mi South 8.1 mph - N/A   Clear
5:00 PM 84.2 °F 82.8 °F 53.6 °F 35% 30.08 in 10.0 mi South 9.2 mph - N/A   Clear
5:20 PM 82.4 °F 81.4 °F 53.6 °F 37% 30.08 in 10.0 mi South 4.6 mph - N/A   Clear
5:40 PM 82.4 °F 81.4 °F 53.6 °F 37% 30.08 in 10.0 mi South 4.6 mph - N/A   Clear
6:00 PM 82.4 °F 81.4 °F 53.6 °F 37% 30.09 in 10.0 mi South 6.9 mph - N/A   Clear
6:20 PM 80.6 °F 80.3 °F 53.6 °F 39% 30.09 in 10.0 mi SE 5.8 mph - N/A   Clear
6:40 PM 78.8 °F - 53.6 °F 42% 30.10 in 10.0 mi SE 5.8 mph - N/A   Clear
7:00 PM 75.2 °F - 53.6 °F 47% 30.10 in 10.0 mi Calm Calm - N/A   Clear
7:20 PM 73.4 °F - 53.6 °F 50% 30.10 in 10.0 mi SE 4.6 mph - N/A   Clear
7:40 PM 71.6 °F - 55.4 °F 57% 30.11 in 10.0 mi SE 4.6 mph - N/A   Clear
8:00 PM 71.6 °F - 55.4 °F 57% 30.11 in 10.0 mi SE 6.9 mph - N/A   Clear
8:20 PM 71.6 °F - 55.4 °F 57% 30.11 in 10.0 mi East 4.6 mph - N/A   Clear
8:40 PM 71.6 °F - 57.2 °F 60% 30.11 in 10.0 mi SSE 6.9 mph - N/A   Clear
9:00 PM 71.6 °F - 57.2 °F 60% 30.11 in 10.0 mi SSE 9.2 mph - N/A   Clear
10:00 PM 71.6 °F - 59.0 °F 64% 30.11 in 10.0 mi SSE 9.2 mph - N/A   Clear
10:20 PM 69.8 °F - 59.0 °F 68% 30.11 in 10.0 mi SSE 8.1 mph - N/A   Clear
10:40 PM 69.8 °F - 59.0 °F 68% 30.11 in 10.0 mi SSE 6.9 mph - N/A   Clear
11:00 PM 69.8 °F - 59.0 °F 68% 30.12 in 10.0 mi South 3.5 mph - N/A   Clear
11:20 PM 68.0 °F - 59.0 °F 73% 30.12 in 10.0 mi Calm Calm - N/A   Clear
11:40 PM 68.0 °F - 59.0 °F 73% 30.12 in 10.0 mi Calm Calm - N/A   Clear